OneWeb SL0573

operational
NORAD ID: 55152 Int'l Des: 2023-004 Owner: ONEWEBN Country: UK Constellation: oneweb
LEOCIRCULARPOLARONEWEB_TYPE

OneWeb SL0573について

説明を読み込み中...

リアルタイム位置

3D地球を読み込み中...

次回通過

高度履歴

Altitude vs Time

uPlot chart will show altitude changes over time

軌道要素

1 55152U 23004N 25351.31423072 .00000071 00000-0 14745-3 0 9997
2 55152 87.9155 11.6092 0000945 94.0886 266.0354 13.18684603145722
Epoch: Dec 17, 2025 • Age: 10 hours

現在のステータス

高度 1197.1 km
速度 7.25 km/s
衛星直下点 -18.79°S, 159.13°W
打ち上げ日 Jan 10, 2023
運用期間 2.9 years
タイプ internet

技術仕様

分類 Payload
質量 148.00 kg
乾燥質量 140.00 kg
総質量 148.00 kg
長さ 1.30 m
直径 1.00 m
スパン 5.00 m
形状 Trapezoid+2 pan
製造者 ONEWUS
バスタイプ ARROW
フェーズステータス In Orbit
所有者/国 ONEWEBN/UK

大規模コンステレーション

Loading constellations...